User: anonymous   Login
Location: Newark
(47.5989°N, 4.6950°E)
Time: 06:09:10
(UTC+00:00)
Language:

Hubble Space Telescope - Orbit

View from above orbital plane
View from above orbital plane
View from above satellite
View from above satellite

Ground track
Ground track

The orbit data is extracted from the following two-line orbital elements,

1 20580U 90037B   19341.79883884  .00000350  00000-0  10277-4 0  9996
2 20580  28.4681 153.8207 0002675 174.2378 205.9686 15.09309002426911
Epoch (UTC): 07 December 2019 19:10:19
Eccentricity: 0.0002675
inclination: 28.4681°
perigee height: 536 km
apogee height: 540 km
right ascension of ascending node: 153.8207°
argument of perigee: 174.2378°
revolutions per day: 15.09309002
mean anomaly at epoch: 205.9686°
orbit number at epoch: 42691

The dashed part of the orbit path shows where the satellite is in the earth's shadow,  

DLR